Regional Weather Roundup
Issued by NWS

Home | Current Version | Previous Version | Text Only | Print | Product List | Glossary On
Versions: 1 2 3 4 5 6 7 8 9 10 11 12 13 14 15 16 17 18 19 20 21 22 23 24 25 26 27 28 29 30 31 32 33 34 35 36 37 38 39 40 41 42 43 44 45 46 47 48 49 50
000
ASUS44 KMEG 032000
RWRTN
TENNESSEE HOURLY STATE WEATHER ROUNDUP
NATIONAL WEATHER SERVICE MEMPHIS TN
300 PM CDT WED JUN 03 2015

TNZ002-004-019-021-049-052-054-088>092-032100-
WEST TENNESSEE

CITY           SKY/WX    TMP DP  RH WIND       PRES   REMARKS
MEMPHIS INTL   CLOUDY    76  59  55 NE7       30.00F
NWS MEMPHIS      N/A     75 N/A N/A MISG        N/A
JACKSON        CLOUDY    74  58  57 N7        30.01F
DYERSBURG      CLOUDY    72  50  46 N3        30.02F
PARIS          MOSUNNY   73  57  56 CALM      30.01F
LEXINGTON      CLOUDY    72  59  64 VRB3      30.00F
$$

TNZ008-025-027-028-033-062-065-066-032100-
NORTH MIDDLE TENNESSEE

CITY           SKY/WX    TMP DP  RH WIND       PRES   REMARKS
NASHVILLE      PTSUNNY   75  60  59 NE6       30.01F
CLARKSVILLE    PTSUNNY   73  57  57 E7        30.01F
COOKEVILLE     MOSUNNY   75  64  69 N7        29.98F
CROSSVILLE     PTSUNNY   75  59  57 NE6       30.01F
$$

TNZ061-075-076-078-094-096-097-032100-
SOUTH MIDDLE TENNESSEE

CITY           SKY/WX    TMP DP  RH WIND       PRES   REMARKS
FAYETTEVILLE   SUNNY    N/A N/A N/A MISG      29.98F
TULLAHOMA      PTSUNNY   75  63  64 N8        29.99F
WINCHESTER     CLOUDY    73  63  68 NW6       29.97F
MCMINNVILLE    MOSUNNY   75  64  69 N9        29.99F
COLUMBIA       CLOUDY    73  63  68 VRB5      29.98F
SHELBYVILLE    MOSUNNY   75  64  69 NW9       30.00F
$$

TNZ017-018-042-046-047-032100-
NORTHEAST TENNESSEE

CITY           SKY/WX    TMP DP  RH WIND       PRES   REMARKS
TRI CITIES     CLOUDY    70  59  68 VRB6      30.02S THUNDER
ELIZABETHTON   CLEAR     72  61  68 CALM      30.02F
$$

TNZ012-013-036-069-073-074-032100-
CENTRAL EAST TENNESSEE

CITY           SKY/WX    TMP DP  RH WIND       PRES   REMARKS
KNOXVILLE      PTSUNNY   77  62  59 E9        29.97F
OAK RIDGE      MOSUNNY   82  58  43 CALM      29.98F
GATLINBURG     PTCLDY    68  61  77 S6        29.99F
$$

TNZ083-085-099-032100-
SOUTHEAST TENNESSEE

CITY           SKY/WX    TMP DP  RH WIND       PRES   REMARKS
CHATTANOOGA    MOSUNNY   80  63  55 VRB6      29.95F
$$

SKY/WX REPORTED AS FAIR MEANS FEW OR NO CLOUDS BELOW
12 THOUSAND FEET.



USA.gov is the U.S. government's official web portal to all federal, state and local government web resources and services.